[[{"header":{"parameterUnit":"m.s-1","parameterCategory":1,"la1":30.2991,"la2":30.254,"lo1":-89.0895,"lo2":-89.0444,"dy":0.0017,"dx":0.0017,"nx":28,"ny":28,"refTime":"2023-08-28T09:00:00:Z","depth":0,"parameterNumber":2,"parameterNumberName":"U-component_of_WINDS"},"data":[0,0,0,0,0,0,0,0,0,0,0,0,0,0,0,0,0,0,0,0,0,0,0,0,0,0,0,0,0,0,0,0,0,0,0,0,0,0,0,0,0,0,0,0,0,0,0,0,0,0,0,0,0,0,0,0,0,0,-0.7826,-0.7825,0,-0.7768,-0.7767,-0.7766,-0.7727,-0.7727,-0.7726,-0.7726,-0.7668,-0.7667,-0.7666,0,0,0,0,0,0,0,0,0,0,0,0,0,-0.7907,-0.7905,-0.7826,-0.7825,-0.7825,-0.7768,-0.7767,-0.7766,-0.7727,-0.7727,-0.7726,-0.7726,-0.7668,-0.7667,-0.7665,0,0,0,0,0,0,0,0,0,0,0,0,0,-0.7862,-0.7905,-0.7826,-0.7798,-0.7795,-0.7768,-0.7767,-0.7766,-0.7727,-0.7727,-0.7726,-0.7726,-0.7669,-0.7667,-0.7665,-0.7662,0,0,-0.7659,-0.7659,0,0,0,0,0,0,0,0,-0.7865,-0.786,-0.7803,-0.78,-0.7796,-0.7754,-0.7774,-0.7731,-0.7727,-0.7753,-0.7726,-0.7726,-0.7697,-0.7693,-0.7683,-0.7659,-0.7657,-0.7659,-0.7658,-0.7657,-0.7657,0,0,0,0,0,0,0,-0.7868,-0.7862,-0.7803,-0.7802,-0.7798,-0.7789,-0.7783,-0.7766,-0.7728,-0.7751,-0.7748,-0.7741,-0.7695,-0.7685,-0.7681,-0.7656,-0.7659,-0.7658,-0.7656,-0.7656,-0.7628,-0.7629,0,0,0,0,0,0,-0.7875,-0.7865,-0.7805,-0.7801,-0.783,-0.7788,-0.7781,-0.7768,-0.7728,-0.7722,-0.7742,-0.7739,-0.7688,-0.7684,-0.7679,-0.7673,-0.7657,-0.7655,-0.7654,-0.7628,-0.7628,-0.7629,0,0,0,0,0,0,-0.7877,-0.787,-0.7807,-0.7832,-0.7823,-0.7787,-0.7774,-0.7767,-0.7757,-0.7721,-0.7715,-0.7738,-0.7688,-0.7682,-0.7667,-0.7671,-0.7655,-0.7653,-0.7627,-0.7628,-0.7629,-0.7661,0,0,0,0,0,0,-0.788,-0.7871,-0.7869,-0.7832,-0.7822,-0.7795,-0.7774,-0.7766,-0.7753,-0.775,-0.7716,-0.771,-0.7687,-0.767,-0.7665,-0.7668,-0.7651,-0.7627,-0.7628,-0.7628,-0.7659,-0.7663,-0.7666,0,0,0,0,0,-0.7883,-0.788,-0.7869,-0.7862,-0.7818,-0.7795,-0.7789,-0.7763,-0.7754,-0.7751,-0.7729,-0.7711,-0.7671,-0.7669,-0.7663,-0.7665,-0.7626,-0.7627,-0.7628,-0.7658,-0.7662,-0.7665,0,0,0,0,0,0,-0.7918,-0.7875,-0.7862,-0.7847,-0.7825,-0.7788,-0.7784,-0.7768,-0.7748,-0.7746,-0.7714,-0.7707,-0.7695,-0.7679,-0.7677,-0.7661,-0.7647,-0.7647,-0.7671,-0.7675,-0.7678,-0.7682,-0.765,0,0,0,0,0,-0.7924,-0.7908,-0.7872,-0.7863,-0.7852,-0.7821,-0.781,-0.7791,-0.7767,-0.7758,-0.7734,-0.7712,-0.7695,-0.7684,-0.7666,-0.7657,-0.765,-0.7656,-0.7659,-0.7662,-0.7662,-0.7657,-0.766,-0.7632,-0.7632,-0.7632,0,0,-0.7937,-0.7911,-0.7903,-0.7869,-0.785,-0.7835,-0.7813,-0.7798,-0.7787,-0.7756,-0.774,-0.7722,-0.7696,-0.7684,-0.7678,-0.767,-0.7668,-0.7663,-0.7666,-0.7664,-0.7659,-0.7661,-0.7664,-0.7633,-0.7633,-0.7632,0,0,-0.7952,-0.7931,-0.7921,-0.7903,-0.7874,-0.7853,-0.7851,-0.7817,-0.7804,-0.7788,-0.7764,-0.7752,-0.7722,-0.7705,-0.7692,-0.7703,-0.7686,-0.7698,-0.7714,-0.7709,-0.7712,-0.7713,-0.7718,-0.772,-0.7698,-0.7699,-0.7699,0,-0.7971,-0.7947,-0.7919,-0.7905,-0.7891,-0.7863,-0.7853,-0.7837,-0.7804,-0.7796,-0.7788,-0.7751,-0.7731,-0.7716,-0.7719,-0.7709,-0.7707,-0.7701,-0.7713,-0.7715,-0.7716,-0.772,-0.7722,-0.77,-0.77,-0.77,-0.77,0,-0.7973,-0.7956,-0.7952,-0.7921,-0.7907,-0.7896,-0.7867,-0.7857,-0.784,-0.7821,-0.7805,-0.7781,-0.7758,-0.7753,-0.7737,-0.7736,-0.7732,-0.7719,-0.7704,-0.7721,-0.7724,-0.7725,-0.7703,-0.7702,-0.7701,-0.7701,0,0,-0.8007,-0.7961,-0.796,-0.7946,-0.7913,-0.79,-0.7889,-0.7866,-0.7858,-0.7837,-0.7827,-0.7804,-0.7792,-0.7778,-0.776,-0.7756,-0.7767,-0.7744,-0.7743,-0.7749,-0.7766,-0.7775,-0.7777,-0.7756,-0.7756,-0.7757,-0.7768,0,-0.8017,-0.7993,-0.7968,-0.7954,-0.7939,-0.7913,-0.7903,-0.7882,-0.7864,-0.785,-0.7831,-0.7815,-0.7801,-0.7792,-0.7787,-0.7767,-0.777,-0.7766,-0.7747,-0.7747,-0.7754,-0.7779,-0.7788,-0.78,-0.7769,-0.7769,-0.7769,0,-0.8025,-0.8005,-0.7989,-0.7958,-0.7951,-0.7943,-0.7921,-0.7907,-0.7884,-0.7872,-0.7857,-0.7837,-0.7825,-0.7813,-0.7797,-0.7795,-0.7786,-0.7775,-0.7775,-0.7772,-0.7759,-0.7776,-0.7803,-0.7805,-0.7771,-0.7771,-0.777,0,-0.8052,-0.8021,-0.8008,-0.7997,-0.796,-0.7955,-0.794,-0.7916,-0.7905,-0.7886,-0.7879,-0.7859,-0.7849,-0.7835,-0.7811,-0.7805,-0.7798,-0.7784,-0.7788,-0.7789,-0.7787,-0.7787,-0.7813,-0.7782,-0.7782,-0.7782,-0.7782,0,-0.8066,-0.8057,-0.802,-0.8011,-0.8001,-0.7974,-0.7965,-0.7948,-0.7928,-0.7916,-0.7893,-0.7883,-0.7853,-0.7841,-0.7823,-0.7812,-0.7808,-0.7798,-0.7793,-0.78,-0.7801,-0.7793,-0.7792,-0.7783,-0.7782,-0.7782,-0.7782,0,-0.8094,-0.8068,-0.8052,-0.8019,-0.8011,-0.8005,-0.7978,-0.797,-0.7951,-0.7938,-0.7933,-0.7904,-0.7888,-0.7864,-0.7841,-0.7829,-0.7822,-0.7814,-0.7829,-0.7826,-0.7832,-0.7832,-0.7853,-0.7854,-0.7823,-0.7824,-0.7824,0,-0.8104,-0.8096,-0.8063,-0.8054,-0.8039,-0.8024,-0.8013,-0.7986,-0.7975,-0.7949,-0.7944,-0.7926,-0.791,-0.7887,-0.7864,-0.7847,-0.7839,-0.7847,-0.7836,-0.7843,-0.7839,-0.784,-0.7839,-0.785,-0.785,-0.7851,-0.7851,0,-0.8125,-0.8113,-0.8096,-0.8075,-0.8062,-0.8044,-0.8026,-0.802,-0.799,-0.7979,-0.7962,-0.795,-0.7926,-0.7909,-0.7889,-0.7875,-0.7858,-0.7855,-0.7855,-0.7861,-0.7871,-0.7866,-0.7836,-0.7854,-0.7854,-0.7854,-0.7854,-0.7854,-0.8144,-0.8137,-0.8112,-0.8095,-0.8078,-0.8062,-0.8053,-0.8033,-0.8018,-0.7997,-0.7982,-0.7967,-0.7946,-0.7917,-0.7904,-0.7892,-0.7885,-0.7885,-0.7885,-0.7885,-0.7888,-0.7873,-0.7888,-0.7888,-0.7888,-0.7888,-0.7888,0,-0.8164,-0.8147,-0.8131,-0.8106,-0.8093,-0.8078,-0.8058,-0.8048,-0.8034,-0.8015,-0.8,-0.7982,-0.7966,-0.7943,-0.7925,-0.792,-0.7912,-0.7917,-0.7917,-0.7914,-0.7895,-0.7897,-0.7923,-0.7923,-0.7923,-0.7923,-0.7923,-0.7923,-0.8173,-0.816,-0.8145,-0.8124,-0.8108,-0.8091,-0.8081,-0.8066,-0.8051,-0.8031,-0.8017,-0.8002,-0.7983,-0.7964,-0.7949,-0.7943,-0.7937,-0.7944,-0.7936,-0.7918,-0.7915,-0.7912,-0.7913,-0.7943,-0.7943,-0.7955,-0.7955,-0.7955]},{"header":{"parameterUnit":"m.s-1","parameterCategory":1,"la1":30.2991,"la2":30.254,"lo1":-89.0895,"lo2":-89.0444,"dy":0.0017,"dx":0.0017,"nx":28,"ny":28,"refTime":"2023-08-28T09:00:00:Z","depth":0,"parameterNumber":3,"parameterNumberName":"V-component_of_WINDS"},"data":[0,0,0,0,0,0,0,0,0,0,0,0,0,0,0,0,0,0,0,0,0,0,0,0,0,0,0,0,0,0,0,0,0,0,0,0,0,0,0,0,0,0,0,0,0,0,0,0,0,0,0,0,0,0,0,0,0,0,3.8955,3.8956,0,3.8979,3.8979,3.8979,3.8933,3.8932,3.893,3.8929,3.8951,3.8953,3.8955,0,0,0,0,0,0,0,0,0,0,0,0,0,3.8868,3.887,3.8955,3.8956,3.8956,3.8979,3.8979,3.8979,3.8933,3.8931,3.893,3.8928,3.895,3.8953,3.8955,0,0,0,0,0,0,0,0,0,0,0,0,0,3.89,3.8871,3.8955,3.8936,3.8934,3.8979,3.8979,3.8979,3.8934,3.8931,3.8929,3.8927,3.895,3.8953,3.8956,3.902,0,0,3.8965,3.8966,0,0,0,0,0,0,0,0,3.8899,3.8904,3.8938,3.8937,3.8936,3.8951,3.8957,3.8993,3.8934,3.8934,3.8929,3.8926,3.8953,3.8955,3.8965,3.9021,3.9022,3.8965,3.8967,3.8968,3.8969,0,0,0,0,0,0,0,3.8896,3.8902,3.8965,3.8939,3.8937,3.8925,3.8927,3.8963,3.8956,3.8934,3.893,3.8934,3.8951,3.8962,3.8965,3.9022,3.8965,3.8968,3.8969,3.8971,3.9131,3.9133,0,0,0,0,0,0,3.8897,3.8901,3.8964,3.8965,3.8911,3.8928,3.8931,3.8948,3.8955,3.8954,3.8936,3.8932,3.8958,3.8961,3.8965,3.9041,3.8968,3.8971,3.8973,3.9128,3.9131,3.9134,0,0,0,0,0,0,3.8895,3.8903,3.8963,3.8932,3.8939,3.8932,3.8952,3.895,3.896,3.8957,3.8955,3.8948,3.8956,3.8961,3.9006,3.9041,3.8972,3.8975,3.9125,3.9129,3.9133,3.9192,0,0,0,0,0,0,3.8893,3.8903,3.8928,3.8933,3.8941,3.9004,3.8954,3.8952,3.8966,3.896,3.8968,3.8967,3.8955,3.9002,3.9009,3.9044,3.8977,3.9122,3.9127,3.9131,3.9187,3.9197,3.9206,0,0,0,0,0,3.889,3.8943,3.8929,3.8937,3.8972,3.9007,3.9011,3.8996,3.8969,3.8993,3.8991,3.8967,3.9036,3.9007,3.9015,3.9051,3.912,3.9126,3.9131,3.9182,3.9195,3.9206,0,0,0,0,0,0,3.8942,3.8944,3.8928,3.8985,3.8996,3.8999,3.9029,3.901,3.9029,3.9023,3.9004,3.9006,3.9055,3.9057,3.9025,3.9112,3.9073,3.908,3.9109,3.9121,3.9131,3.9129,3.898,0,0,0,0,0,3.896,3.8989,3.8988,3.9038,3.9045,3.9036,3.9051,3.9039,3.9049,3.9053,3.9054,3.9065,3.9089,3.9105,3.9127,3.9186,3.9187,3.9215,3.9224,3.9232,3.9239,3.927,3.9282,3.9152,3.9152,3.9152,0,0,3.8998,3.9002,3.9021,3.9049,3.9056,3.9085,3.904,3.9074,3.9095,3.9058,3.9101,3.9102,3.9112,3.9165,3.9188,3.9168,3.9275,3.9239,3.9245,3.9248,3.9277,3.9289,3.93,3.9156,3.9155,3.9154,0,0,3.9081,3.9088,3.913,3.9138,3.9149,3.9143,3.9153,3.9159,3.9158,3.9201,3.9173,3.9198,3.924,3.9248,3.9258,3.9344,3.9322,3.9351,3.9401,3.9432,3.9442,3.9451,3.9481,3.9492,3.9358,3.9358,3.9358,0,3.9127,3.9171,3.9154,3.9189,3.9201,3.9169,3.9211,3.922,3.9238,3.9247,3.9224,3.9276,3.928,3.9334,3.9355,3.9364,3.9374,3.9351,3.9442,3.9451,3.9459,3.9488,3.9499,3.9361,3.9361,3.9361,3.936,0,3.9226,3.9256,3.9289,3.9307,3.9323,3.9361,3.935,3.9368,3.9354,3.935,3.9393,3.9397,3.9419,3.9431,3.9418,3.9483,3.947,3.9445,3.9405,3.9475,3.9502,3.9513,3.9366,3.9365,3.9364,3.9363,0,0,3.9344,3.9352,3.9364,3.9371,3.9381,3.9404,3.944,3.9462,3.9478,3.949,3.952,3.9556,3.9532,3.9543,3.953,3.9557,3.9624,3.9529,3.9529,3.9546,3.9696,3.9715,3.9728,3.961,3.9612,3.9613,3.9695,0,3.9427,3.949,3.9475,3.9538,3.9565,3.9534,3.9566,3.9575,3.9571,3.9594,3.959,3.9615,3.9583,3.9589,3.9614,3.9611,3.9654,3.9605,3.9637,3.9638,3.9636,3.9742,3.9763,3.984,3.9705,3.9707,3.9708,0,3.9533,3.955,3.9615,3.9619,3.963,3.9658,3.9677,3.9699,3.9707,3.9703,3.9715,3.9697,3.9732,3.9691,3.9739,3.9705,3.9717,3.9717,3.972,3.9723,3.9678,3.9748,3.9864,3.9876,3.9725,3.9723,3.9722,0,3.9612,3.9651,3.9695,3.9702,3.9708,3.9729,3.9733,3.9739,3.9753,3.9768,3.9777,3.9796,3.9807,3.9822,3.9809,3.9781,3.9859,3.9817,3.9856,3.9857,3.9875,3.9874,3.9995,3.9882,3.9881,3.9881,3.9881,0,3.9707,3.9748,3.9731,3.9758,3.9802,3.9785,3.9829,3.9829,3.9835,3.986,3.9835,3.9859,3.984,3.9863,3.9853,3.9894,3.9899,3.9896,3.9893,3.9899,3.9899,3.9907,3.9901,3.9884,3.9884,3.9883,3.9883,0,3.9804,3.9794,3.984,3.9842,3.9843,3.9876,3.9877,3.9901,3.9896,3.9929,3.9935,3.9926,3.9952,3.994,3.9967,3.996,4.0012,4.0002,4.001,4.0007,4.0047,4.0043,4.0177,4.0194,4.007,4.0071,4.0072,0,3.9865,3.9896,3.9901,3.9916,3.9922,3.9947,3.9961,3.9944,3.9959,3.9971,3.9994,4.0017,4.0035,4.0077,4.0072,4.0092,4.0082,4.0128,4.0085,4.009,4.0083,4.0082,4.0085,4.0137,4.0138,4.0139,4.014,0,3.9975,3.9969,3.999,4.0009,4.0026,4.004,4.0052,4.0066,4.005,4.0068,4.0094,4.0108,4.0134,4.0158,4.0175,4.0177,4.0156,4.0153,4.0163,4.017,4.0173,4.0172,4.0034,4.0151,4.015,4.0149,4.0148,4.0148,4.0056,4.0082,4.0089,4.0113,4.012,4.0132,4.0155,4.0152,4.0173,4.0194,4.0182,4.0213,4.0219,4.024,4.0246,4.0269,4.0251,4.0265,4.0269,4.0273,4.0279,4.0169,4.0272,4.0271,4.0271,4.0271,4.027,0,4.0165,4.0168,4.019,4.0208,4.0226,4.0204,4.0216,4.0233,4.026,4.0268,4.0286,4.0315,4.0337,4.0334,4.0354,4.0373,4.0364,4.0379,4.0378,4.0379,4.0293,4.0283,4.0386,4.0386,4.0386,4.0386,4.0386,4.0386,4.0224,4.0266,4.026,4.0305,4.0307,4.0337,4.0345,4.0356,4.0362,4.0396,4.0414,4.0412,4.0416,4.0436,4.0455,4.0453,4.0462,4.0481,4.0476,4.0396,4.0385,4.0374,4.0364,4.0483,4.0483,4.0559,4.056,4.0561]}]]